This demonstration page uses our WeatherBlox Daily Observations layout. Learn more.

Left ArrowRight Arrow

41.55636, -103.73856

Hourly Observations for June 14, 2015

Temp ( °F °C ) Dew Point ( °F °C ) Humidity (%) Winds ( mph kmh ) Pressure ( in mb ) Visibility ( mi km ) Precip ( " mm )
12:53 am 00:53 Clear 68 20 60 15.6 76 76 ESE 13 20 29.73 1007 10 16.0934 0 0
1:53 am 01:53 Clear 68 20 60 15.6 76 76 ESE 16 26 29.7 1006 10 16.0934 0 0
2:53 am 02:53 Clear 66 18.9 59 15 78 78 ESE 12 19 29.69 1005 10 16.0934 0 0
3:53 am 03:53 Clear 64 17.8 59 15 84 84 ESE 8 13 29.7 1006 10 16.0934 0 0
4:53 am 04:53 Clear 62 16.7 59 15 90 90 E 7 11 29.72 1006 10 16.0934 0 0
5:53 am 05:53 Sunny 62 16.7 59 15 90 90 E 6 9 29.75 1007 10 16.0934 0 0
6:53 am 06:53 Sunny 65 18.3 61 16.1 87 87 ESE 6 9 29.76 1008 9 14.48406 0 0
7:53 am 07:53 Sunny 70 21.1 61 16.1 73 73 Calm 29.77 1008 10 16.0934 0 0
8:53 am 08:53 Sunny 73 22.8 60 15.6 64 64 NW 6 9 29.78 1008 10 16.0934 0 0
9:53 am 09:53 Sunny 75 23.9 59 15 58 58 NNE 13 20 29.8 1009 10 16.0934 0 0
10:53 am 10:53 Sunny 75 23.9 60 15.6 60 60 NE 10 17 29.82 1010 10 16.0934 0 0
11:53 am 11:53 Sunny 75 23.9 60 15.6 60 60 NE 12 19 29.82 1010 10 16.0934 0 0
12:53 pm 12:53 Sunny 78 25.6 60 15.6 54 54 ENE 9 15 29.83 1010 10 16.0934 0 0
1:53 pm 13:53 Sunny 79 26.1 58 14.4 49 49 NE 10 17 29.81 1010 10 16.0934 0 0
2:53 pm 14:53 Sunny 81 27.2 56 13.3 42 42 NE 12 19 29.8 1009 10 16.0934 0 0
3:53 pm 15:53 Sunny 82 27.8 56 13.3 41 41 ENE 13 20 29.8 1009 10 16.0934 0 0
4:53 pm 16:53 Sunny 81 27.2 56 13.3 42 42 NE 18 30 29.8 1009 10 16.0934 0 0
5:53 pm 17:53 Sunny 79 26.1 56 13.3 45 45 ENE 17 28 29.8 1009 10 16.0934 0 0
6:53 pm 18:53 Partly Cloudy 76 24.4 57 13.9 52 52 NNE 17 28 29.84 1010 10 16.0934 0 0
7:53 pm 19:53 Mostly Cloudy 73 22.8 57 13.9 57 57 N 15 24 29.87 1012 10 16.0934 0 0
8:19 pm 20:19 Partly Cloudy with Nearby Thunderstorms 71 21.7 58 14.4 63 63 N 17 28 29.8 1009 10 16.0934 0 0
8:53 pm 20:53 Partly Cloudy with Nearby Thunderstorms 67 19.4 59 15 76 76 N 17 28 29.92 1013 10 16.0934 0 0.0254
9:38 pm 21:38 Cloudy with Light Rain 64 18 61 16 88 88 E 6 9 29.94 1014 10 16.0934 0 0
9:53 pm 21:53 Cloudy with Light Rain 66 18.9 60 15.6 81 81 E 10 17 29.98 1015 10 16.0934 0.03 0.762
10:13 pm 22:13 Cloudy with Nearby Thunderstorms 65 18.3 60 15.6 84 84 E 12 19 29.97 1015 10 16.0934 0.01 0.254
10:29 pm 22:29 Cloudy with Light Rain 64 17.8 59 15 84 84 E 18 30 29.97 1015 9 14.48406 0.03 0.762
10:37 pm 22:37 Cloudy with Nearby Thunderstorms 64 17.8 59 15 84 84 E 22 35 29.94 1014 10 16.0934 0.03 0.762
10:53 pm 22:53 Cloudy with Light Rain 64 17.8 60 15.6 87 87 ESE 9 15 29.98 1015 10 16.0934 0.04 1.016
11:35 pm 23:35 Cloudy with Light Rain 64 17.8 63 17.2 96 96 Calm 29.97 1015 10 16.0934 0.02 0.508
11:53 pm 23:53 Cloudy with Light Rain 64 17.8 63 17.2 96 96 Calm 30.02 1017 10 16.0934 0.02 0.508

Powered by AerisWeather